Temperature
21 20 20 20 20 20 20 21 21 21 21 21 20 20 19 18 18 17 17 17 16 16 16 16 16 16 15 15 15 15 15 15 15 15 14 14 14 14 13 13 13 13 13 13
20 20 20 20 20 20 20 20 20 20 20 21 19 19 19 18 17 17 17 16 16 16 16 16 16 16 15 15 15 15 15 14 14 14 14 14 13 13 13 13 13 13 13 12
19 19 19 19 20 20 20 20 20 20 20 19 19 18 18 17 17 17 16 16 16 15 15 15 15 15 15 15 15 15 14 14 14 14 14 13 13 13 13 13 13 13 12 12
18 18 18 20 20 19 19 19 19 19 19 18 18 17 17 16 16 16 15 15 15 15 15 15 15 15 15 15 15 14 14 14 14 13 13 13 13 13 13 12 12 12 12 12
18 18 18 19 18 18 18 18 18 17 17 17 17 17 17 16 15 15 15 15 15 15 15 14 14 14 14 14 14 14 14 14 14 13 13 13 13 13 12 12 12 12 12 12
17 17 17 18 17 17 18 18 16 16 16 16 16 18 18 16 15 14 14 14 14 14 14 14 14 14 14 14 14 14 14 14 13 13 13 13 13 12 12 12 12 12 12 12
17 17 18 17 16 16 17 17 15 15 15 15 16 16 15 14 14 14 14 14 14 14 14 14 14 14 14 14 14 14 14 13 13 13 13 13 12 12 12 12 12 12 12 12
16 16 17 15 16 16 16 15 15 15 14 14 14 14 13 13 13 13 13 13 13 13 13 13 13 13 13 13 13 13 13 13 13 13 13 12 12 12 12 12 12 11 11 11
16 16 15 14 15 14 14 14 14 14 13 13 13 13 13 12 12 13 13 13 13 13 13 13 13 13 13 13 13 13 13 13 13 13 12 12 12 12 12 11 11 11 11 11
15 15 15 14 13 13 13 13 13 13 12 12 12 12 12 12 12 12 12 12 12 12 13 13 13 13 12 13 12 12 12 12 12 12 12 12 12 11 11 11 11 11 11 10
14 15 14 13 13 12 12 12 12 12 12 12 12 11 11 11 11 11 12 12 12 12 12 12 12 12 12 12 12 12 12 12 12 11 11 11 11 11 11 11 11 10 10 10
14 14 14 13 12 12 12 12 12 12 11 11 11 11 11 11 11 11 11 11 11 11 11 12 12 12 12 11 11 11 11 11 11 11 11 10 10 10 10 10 10 10 10 10
12 12 12 12 11 11 11 11 11 11 11 11 11 11 11 11 10 10 10 10 11 11 11 11 11 11 11 11 11 11 11 11 10 10 10 10 10 10 10 10 10 10 9 9
11 11 11 11 11 11 11 11 10 10 11 10 10 10 10 10 10 10 10 10 10 10 10 10 11 11 11 10 10 10 10 10 10 10 10 10 9 9 9 9 9 9 9 9
10 10 10 10 10 10 10 10 10 10 10 10 10 10 10 10 9 9 9 9 9 10 10 10 10 10 10 10 10 10 10 10 10 10 9 9 9 9 9 9 9 9 9 8
10 10 10 10 9 10 10 10 10 10 10 10 10 10 9 9 9 9 9 9 9 9 9 9 10 10 9 9 9 9 9 9 9 9 9 9 9 9 9 8 8 8 8 8
10 10 9 9 9 9 9 9 9 9 9 9 9 9 9 9 9 8 8 8 8 8 8 9 9 9 9 9 9 8 8 8 8 8 8 8 8 8 8 8 8 8 8 8
9 9 10 9 9 9 8 8 8 8 8 8 9 9 8 8 8 8 8 8 8 8 8 8 8 8 8 8 8 8 8 8 8 8 8 8 7 7 7 7 7 7 7 7
9 9 9 9 8 8 8 8 8 8 8 8 8 8 8 8 7 7 7 7 7 7 7 7 7 7 7 8 7 7 7 7 7 7 7 7 7 7 7 7 7 6 6 6
8 8 8 8 8 8 8 8 8 7 7 7 7 7 7 7 7 7 7 7 7 7 7 7 7 7 7 7 7 7 7 7 7 6 6 6 6 6 6 6 6 6 6 6
8 8 8 8 8 8 8 7 7 7 7 7 7 6 6 6 6 6 6 6 7 7 6 6 6 6 6 6 6 6 6 6 6 6 6 6 6 6 6 5 5 5 5 5
8 7 7 7 7 7 7 7 7 6 6 6 6 6 6 6 6 6 6 6 6 6 6 6 6 6 6 6 6 5 5 5 5 5 5 5 5 5 5 5 5 5 5 5
7 7 7 7 7 7 7 6 6 6 6 6 6 6 5 5 5 5 5 5 5 6 5 5 5 5 5 5 5 5 4 4 4 4 4 4 4 4 4 4 4 4 4 4
7 7 7 6 6 6 6 6 6 5 5 5 5 5 5 5 5 5 5 5 5 5 5 5 5 5 5 4 4 4 4 4 4 4 3 4 4 4 4 4 4 4 3 3
6 6 6 6 6 6 5 5 5 5 5 5 5 5 5 5 5 5 5 5 5 5 4 4 4 4 4 4 4 3 3 3 3 3 3 3 3 3 3 3 3 3 3 3
6 6 5 5 5 5 5 5 4 4 4 4 4 4 4 4 4 4 4 4 4 4 4 4 4 4 4 3 3 3 3 3 3 3 2 2 2 3 3 3 3 3 2 2
5 5 5 5 4 4 4 4 4 4 4 3 3 4 4 4 4 4 4 4 4 3 3 3 3 3 3 3 3 2 2 2 2 2 2 2 2 2 2 2 2 2 2 2
Wind_Speed
8 7 7 9 9 9 11 12 12 10 9 8 6 6 5 4 2 1 2 3 3 3 3 3 3 3 3 4 4 5 5 6 6 6 5 5 5 6 6 6 7 7 7 7
9 7 8 10 11 11 11 12 12 11 10 6 6 5 5 4 2 2 2 2 3 3 3 4 3 3 3 4 4 5 5 6 5 5 5 5 6 6 6 6 6 6 7 7
9 7 8 11 10 11 10 9 10 10 8 5 5 5 5 4 3 3 3 3 3 4 4 4 4 3 3 4 4 4 5 5 5 5 5 6 5 5 6 6 6 6 6 7
7 7 10 4 0 4 7 5 5 6 5 6 5 5 3 4 4 4 4 4 4 4 3 4 3 3 3 4 4 4 5 5 5 5 5 5 6 6 6 6 5 6 6 6
6 8 9 5 2 3 6 6 3 3 5 6 6 4 2 3 4 5 5 5 4 4 4 3 3 3 3 4 4 4 4 5 5 5 5 5 6 6 6 6 6 6 6 6
7 8 7 2 1 2 5 6 1 2 4 5 4 4 3 4 5 5 4 4 3 3 3 2 2 2 3 4 4 4 4 5 5 5 5 6 6 6 5 5 5 5 5 5
10 9 6 1 1 2 6 2 1 2 3 4 4 5 6 6 6 5 4 4 3 2 2 2 2 2 3 4 4 5 4 4 4 5 5 6 5 5 5 5 5 5 5 5
7 9 5 2 1 2 2 2 1 3 4 4 5 6 6 6 6 5 4 4 3 3 2 2 2 3 4 4 4 4 3 4 4 5 4 4 4 4 5 5 5 5 5 4
5 4 2 0 1 2 2 2 3 4 5 5 5 6 7 7 7 6 5 4 4 3 3 3 3 3 4 4 3 3 3 4 4 4 4 5 5 5 4 5 5 5 4 4
5 5 4 3 3 3 3 3 4 4 5 5 6 7 7 7 7 7 6 5 4 4 3 3 3 4 4 4 3 3 3 4 3 4 4 4 4 4 4 5 5 5 5 5
7 6 5 4 4 4 5 5 4 4 5 6 6 6 7 7 8 7 6 5 4 4 4 4 4 4 4 4 3 3 3 3 3 3 3 4 4 3 5 4 4 5 5 5
7 6 6 7 7 7 7 7 6 5 6 6 6 7 7 7 7 7 7 6 5 4 5 5 4 4 3 4 4 4 4 3 3 3 3 3 4 3 0 2 1 2 3 4
8 7 8 8 8 7 7 7 6 6 6 6 6 6 6 7 6 7 7 7 6 6 5 5 5 4 4 3 4 5 5 4 3 3 3 4 4 4 3 2 1 2 3 4
7 6 8 7 7 7 6 6 6 6 5 5 6 6 5 6 6 6 7 7 7 6 5 5 5 5 5 4 4 5 5 4 4 3 4 4 5 4 4 4 3 3 3 4
6 7 7 6 6 6 5 5 5 6 5 5 5 5 6 6 6 6 7 7 6 6 6 5 5 5 5 4 4 5 4 4 4 4 4 4 4 4 4 5 4 3 3 3
5 5 5 5 4 4 4 5 6 6 5 5 5 5 6 6 6 6 6 6 5 6 6 6 6 5 5 4 4 4 4 4 4 4 3 3 3 4 4 4 4 4 4 3
6 5 5 5 5 5 5 5 6 6 6 6 6 6 6 5 6 6 6 6 5 6 6 6 6 5 4 4 5 4 4 4 4 4 4 3 3 4 4 4 4 4 4 3
8 7 7 6 5 5 5 5 5 5 5 5 5 5 6 6 6 7 6 6 6 6 6 6 6 5 5 5 4 4 4 4 4 4 4 4 4 4 4 4 5 5 4 3
6 6 6 6 6 5 5 5 5 5 5 5 5 6 6 6 6 6 6 6 6 7 7 6 5 5 5 5 4 4 4 4 4 4 4 4 4 4 4 4 5 5 4 4
5 5 6 6 5 5 5 5 5 5 5 5 6 6 6 7 6 7 7 6 6 6 7 6 6 5 5 4 4 4 4 4 4 4 4 4 4 4 4 4 4 4 4 5
5 5 5 5 5 5 5 5 5 5 5 6 6 6 7 7 7 7 6 7 7 6 6 6 5 5 4 4 4 4 4 4 4 4 4 4 4 4 4 4 4 4 5 5
5 5 5 5 5 5 5 5 5 6 6 6 6 7 7 7 7 7 7 7 7 6 5 5 5 5 5 4 4 4 4 4 4 4 4 4 4 4 4 4 4 4 4 4
5 5 5 5 5 6 6 6 6 6 6 7 7 7 7 7 6 6 7 6 6 6 6 5 6 6 6 5 4 4 4 4 4 4 4 4 4 4 5 5 4 4 4 4
5 5 5 5 5 6 7 6 6 6 6 7 7 7 7 7 6 6 6 6 6 7 6 5 6 6 6 4 4 4 4 4 4 4 4 4 4 4 4 4 4 4 4 5
5 5 5 5 5 5 6 6 6 6 6 6 7 7 6 5 6 6 6 7 7 7 6 5 6 6 4 4 4 4 4 4 4 4 4 4 5 5 5 4 4 4 4 4
5 5 5 5 5 4 4 5 5 5 5 6 6 5 5 5 6 6 6 6 7 6 5 4 4 4 4 4 4 4 4 4 4 4 5 5 5 5 5 5 5 4 4 4
5 5 4 4 4 4 4 5 5 5 5 5 6 6 6 6 5 5 6 5 5 5 4 4 4 4 4 3 4 4 4 4 4 4 4 5 5 5 5 6 5 4 4 5
Wind_Direction
266 273 262 256 249 240 242 253 263 269 271 286 305 309 315 311 302 278 205 196 194 199 203 216 214 212 216 220 218 213 213 217 222 224 219 220 220 222 225 227 231 231 231 230
258 258 256 259 255 248 247 252 256 264 270 292 300 304 308 313 305 280 266 244 226 220 219 223 223 222 222 220 221 219 220 224 224 223 218 217 220 222 226 227 228 229 231 231
262 264 264 252 251 242 239 243 248 256 272 296 303 310 313 314 310 296 289 275 257 241 235 233 231 225 223 220 218 219 221 222 218 217 215 217 218 221 223 224 225 227 229 229
266 259 248 251 281 241 230 235 251 266 282 288 288 291 296 315 311 307 305 292 275 260 252 248 238 227 226 221 218 221 223 224 219 218 219 218 216 218 223 226 223 225 228 228
251 257 264 248 233 244 236 240 269 281 300 311 305 273 265 337 320 308 302 292 284 270 257 247 241 233 224 226 225 227 230 232 224 218 218 220 217 217 221 224 226 227 229 228
241 254 261 262 22 288 240 227 61 323 312 316 313 279 301 339 330 323 319 308 302 289 266 243 229 224 223 228 230 236 242 246 231 221 216 218 221 220 219 218 221 224 226 228
241 249 258 333 337 233 227 248 56 317 313 304 289 307 320 320 323 328 329 327 328 311 281 262 225 207 223 235 244 249 249 247 236 227 223 222 221 219 215 213 213 219 222 225
235 243 242 93 173 229 324 11 299 316 319 306 304 319 325 327 322 321 325 330 331 319 301 282 243 221 236 248 258 255 246 243 239 231 222 217 214 216 215 209 208 215 219 224
242 258 13 250 265 310 314 290 300 302 303 302 304 312 321 323 325 318 317 321 321 311 305 292 261 243 246 261 264 251 241 239 238 232 221 215 210 209 210 209 214 218 219 224
253 247 259 267 283 286 296 301 305 305 302 296 298 306 311 315 317 315 312 316 314 306 304 303 292 266 258 260 248 240 240 244 240 235 227 220 212 207 208 212 216 219 218 221
257 263 270 264 279 284 290 292 293 299 300 300 294 293 300 306 307 307 306 303 300 296 298 300 298 286 270 258 243 240 244 246 245 241 232 221 213 222 223 225 229 226 225 222
260 263 277 285 292 293 284 282 287 291 293 295 290 288 293 296 297 298 297 295 290 291 294 298 301 296 288 269 250 246 250 251 247 244 233 224 216 218 263 250 190 243 264 245
270 280 285 285 284 284 283 283 284 284 283 288 290 290 291 294 295 295 294 292 290 290 291 295 298 298 298 281 261 255 254 254 249 244 236 229 224 221 222 217 182 211 227 227
263 267 270 273 279 282 282 283 283 282 283 285 288 292 294 293 298 297 296 299 298 294 291 292 293 295 299 289 271 263 260 254 246 244 240 235 231 228 227 224 225 238 226 214
252 254 260 276 285 283 282 280 280 282 292 297 295 296 298 296 298 300 302 302 301 298 297 294 291 294 299 287 275 271 267 258 248 247 243 240 234 228 227 227 229 228 227 212
246 249 251 258 273 284 286 282 281 285 290 295 299 300 301 299 298 300 303 304 298 297 299 297 295 298 300 287 278 272 268 271 257 247 243 241 237 232 230 228 228 225 226 225
229 238 247 256 265 276 282 285 285 286 285 289 296 301 302 303 302 303 306 308 302 300 302 298 299 303 297 285 280 276 273 264 246 248 247 243 240 238 235 232 230 230 232 219
236 243 249 254 259 269 280 288 294 297 299 302 301 297 296 295 294 297 302 304 302 301 301 301 303 300 290 282 277 273 272 269 256 249 249 248 247 243 241 238 236 237 240 216
239 245 252 253 256 262 270 281 289 294 298 300 297 294 293 292 293 296 299 300 297 296 301 305 305 289 285 286 285 268 265 262 258 254 251 246 244 245 244 244 241 238 234 227
245 249 250 250 251 258 268 279 287 291 297 301 299 296 296 297 299 297 296 293 289 291 295 299 290 282 282 285 284 272 267 259 256 257 256 253 250 249 247 247 247 243 238 234
253 250 249 250 255 260 265 271 276 283 292 294 295 296 297 298 297 293 290 290 293 298 296 293 285 285 284 289 270 268 268 265 261 258 257 257 256 252 248 246 247 248 243 238
255 249 249 252 256 263 268 269 269 275 282 288 292 294 297 298 296 293 287 285 291 296 291 285 285 293 297 289 269 266 263 262 263 262 260 258 256 253 248 248 249 251 250 247
259 250 248 252 259 267 271 270 270 272 277 283 287 290 292 294 292 288 289 293 294 296 290 284 292 296 287 271 267 263 262 259 258 259 259 258 256 255 252 249 249 249 250 248
259 254 255 259 262 265 269 274 278 279 281 283 282 285 287 288 289 285 285 289 289 289 284 284 286 282 270 261 261 261 261 261 260 262 263 262 259 257 255 252 250 249 249 249
254 253 253 256 261 266 271 277 279 281 284 283 285 288 286 283 284 291 292 293 293 289 285 284 280 271 258 259 259 259 260 262 263 263 261 260 260 260 258 255 254 254 253 251
249 251 254 256 263 268 270 272 275 280 282 283 285 289 290 289 287 289 291 292 292 289 285 282 274 260 257 260 265 268 267 266 264 263 262 262 262 263 264 259 255 253 255 256
250 252 254 260 262 263 265 267 269 274 277 280 287 292 292 291 289 290 291 290 291 288 285 282 277 269 264 261 263 266 266 266 264 263 265 265 266 264 264 263 260 256 253 251
Height
1504 1504 1505 1504 1504 1505 1505 1502 1503 1499 1500 1499 1500 1501 1502 1502 1501 1501 1501 1502 1502 1503 1504 1505 1506 1507 1508 1508 1509 1510 1511 1512 1513 1515 1515 1516 1517 1517 1518 1518 1519 1519 1520 1520
1506 1505 1504 1504 1501 1501 1502 1501 1500 1500 1499 1499 1501 1501 1501 1500 1500 1500 1500 1500 1501 1501 1502 1502 1503 1504 1505 1505 1506 1507 1508 1509 1510 1511 1511 1512 1513 1513 1514 1514 1515 1515 1516 1516
1505 1503 1504 1502 1496 1497 1498 1498 1498 1499 1498 1499 1500 1500 1500 1500 1499 1499 1499 1499 1499 1499 1499 1500 1500 1501 1502 1502 1503 1504 1505 1505 1506 1507 1507 1508 1509 1509 1510 1510 1511 1511 1512 1512
1506 1506 1509 1495 1494 1495 1496 1498 1498 1498 1499 1499 1499 1500 1500 1499 1498 1497 1497 1497 1497 1496 1497 1497 1498 1498 1499 1500 1500 1501 1501 1502 1502 1503 1504 1504 1505 1505 1506 1506 1507 1507 1508 1508
1507 1505 1499 1494 1496 1497 1497 1497 1499 1499 1500 1499 1498 1497 1497 1497 1497 1497 1496 1495 1495 1495 1494 1495 1495 1495 1496 1496 1497 1497 1497 1498 1498 1499 1500 1500 1501 1501 1502 1502 1503 1503 1504 1504
1507 1507 1503 1496 1497 1497 1497 1497 1500 1500 1500 1500 1498 1495 1495 1496 1496 1495 1494 1493 1492 1492 1492 1492 1492 1492 1493 1493 1494 1494 1494 1494 1495 1496 1496 1496 1497 1497 1498 1498 1499 1499 1499 1500
1503 1502 1495 1498 1498 1498 1500 1497 1500 1500 1500 1500 1499 1498 1498 1496 1494 1493 1492 1491 1490 1490 1490 1490 1489 1490 1490 1490 1490 1490 1490 1490 1491 1492 1492 1493 1493 1493 1494 1494 1495 1495 1495 1496
1500 1501 1499 1498 1498 1498 1497 1499 1499 1499 1499 1499 1498 1497 1496 1494 1493 1492 1491 1489 1488 1488 1487 1487 1487 1487 1487 1487 1487 1487 1487 1487 1487 1488 1488 1489 1489 1489 1490 1490 1490 1491 1491 1492
1497 1497 1498 1498 1498 1499 1499 1498 1498 1498 1498 1498 1497 1496 1495 1493 1492 1490 1489 1487 1486 1485 1485 1485 1485 1485 1484 1484 1484 1483 1483 1483 1483 1484 1484 1485 1485 1485 1486 1486 1487 1487 1487 1488
1497 1495 1497 1498 1498 1498 1498 1498 1497 1497 1497 1496 1495 1494 1493 1491 1490 1488 1487 1485 1484 1483 1482 1482 1482 1481 1481 1481 1480 1480 1480 1480 1480 1480 1480 1480 1481 1481 1481 1481 1482 1482 1483 1483
1496 1496 1496 1496 1496 1496 1496 1495 1495 1494 1494 1494 1493 1492 1491 1489 1488 1486 1484 1483 1482 1481 1479 1479 1478 1478 1478 1478 1477 1477 1476 1476 1476 1476 1476 1476 1476 1476 1477 1477 1478 1478 1478 1479
1492 1493 1494 1494 1494 1494 1493 1492 1492 1491 1490 1490 1490 1489 1488 1487 1485 1484 1482 1481 1479 1478 1476 1476 1475 1475 1474 1474 1474 1474 1473 1473 1472 1472 1472 1472 1472 1472 1472 1473 1473 1473 1474 1475
1493 1493 1493 1492 1491 1491 1490 1489 1489 1488 1488 1487 1486 1486 1484 1483 1481 1480 1479 1477 1476 1475 1473 1473 1472 1471 1471 1470 1470 1470 1470 1469 1469 1468 1468 1468 1468 1467 1467 1468 1468 1469 1469 1470
1490 1490 1489 1489 1488 1487 1486 1486 1485 1485 1484 1484 1483 1482 1481 1480 1478 1476 1475 1474 1473 1472 1470 1469 1469 1468 1467 1467 1466 1466 1466 1465 1464 1464 1464 1463 1463 1463 1463 1463 1463 1464 1465 1465
1486 1486 1486 1485 1485 1484 1483 1482 1482 1481 1480 1480 1479 1478 1477 1476 1474 1473 1472 1470 1469 1468 1467 1466 1465 1464 1464 1463 1462 1462 1461 1461 1460 1460 1459 1459 1459 1459 1459 1459 1459 1460 1460 1461
1482 1482 1482 1482 1481 1480 1480 1479 1478 1478 1477 1476 1475 1474 1473 1472 1471 1470 1468 1467 1465 1464 1463 1462 1461 1460 1459 1459 1458 1458 1457 1457 1456 1455 1455 1455 1454 1454 1454 1455 1455 1455 1455 1456
1478 1478 1478 1478 1478 1477 1477 1476 1475 1474 1474 1473 1472 1471 1470 1468 1467 1466 1465 1463 1462 1461 1460 1458 1457 1456 1455 1455 1455 1454 1453 1452 1451 1451 1451 1450 1450 1450 1450 1450 1450 1450 1451 1451
1474 1474 1475 1474 1474 1474 1473 1473 1472 1471 1470 1469 1468 1467 1466 1465 1464 1462 1461 1459 1458 1457 1456 1455 1453 1452 1452 1451 1451 1450 1449 1448 1447 1446 1446 1446 1445 1445 1446 1445 1445 1445 1446 1446
1469 1470 1471 1471 1471 1470 1470 1469 1469 1468 1467 1466 1464 1463 1462 1461 1460 1458 1457 1455 1454 1452 1451 1450 1449 1448 1447 1447 1446 1445 1444 1443 1442 1442 1441 1441 1441 1441 1441 1441 1440 1440 1441 1441
1465 1466 1466 1467 1467 1467 1466 1466 1465 1464 1463 1462 1461 1459 1458 1457 1456 1454 1453 1451 1450 1449 1447 1446 1445 1444 1443 1442 1441 1440 1439 1438 1438 1437 1437 1437 1436 1436 1436 1436 1436 1436 1436 1436
1462 1462 1462 1463 1463 1463 1463 1462 1461 1461 1460 1459 1458 1456 1454 1453 1452 1450 1449 1447 1446 1445 1443 1442 1441 1439 1438 1437 1436 1436 1435 1434 1434 1433 1433 1432 1432 1432 1431 1431 1431 1431 1431 1430
1458 1458 1458 1458 1459 1459 1458 1458 1457 1457 1456 1455 1453 1452 1450 1449 1448 1446 1444 1443 1442 1440 1439 1437 1436 1435 1434 1433 1432 1431 1430 1430 1429 1429 1428 1428 1427 1427 1426 1426 1426 1426 1425 1425
1454 1454 1454 1454 1454 1454 1454 1453 1453 1452 1451 1450 1449 1448 1446 1445 1443 1442 1440 1439 1437 1436 1434 1433 1431 1430 1429 1428 1428 1427 1426 1425 1425 1425 1424 1423 1423 1422 1422 1421 1421 1421 1420 1420
1450 1450 1450 1450 1450 1449 1449 1448 1448 1447 1446 1445 1444 1443 1442 1440 1438 1437 1435 1434 1432 1431 1429 1428 1426 1426 1425 1424 1423 1422 1422 1421 1421 1420 1420 1419 1418 1417 1417 1416 1416 1416 1415 1415
1446 1446 1446 1446 1445 1444 1444 1443 1443 1442 1441 1440 1439 1438 1437 1435 1434 1432 1430 1429 1427 1426 1424 1423 1422 1421 1420 1419 1418 1418 1417 1416 1416 1415 1415 1414 1413 1413 1412 1412 1411 1411 1410 1410
1442 1441 1441 1441 1440 1440 1439 1438 1437 1436 1436 1435 1434 1433 1432 1430 1429 1427 1426 1424 1423 1421 1420 1418 1417 1416 1415 1415 1414 1413 1412 1412 1411 1410 1409 1409 1408 1408 1407 1407 1406 1406 1405 1405
1437 1437 1436 1436 1435 1435 1434 1433 1432 1431 1431 1430 1429 1428 1427 1426 1424 1423 1421 1420 1419 1417 1415 1414 1413 1412 1411 1410 1409 1408 1408 1407 1406 1405 1405 1404 1403 1403 1402 1402 1401 1401 1400 1400